Weather in Pleshcheyevo

Russia / Yaroslavl Oblast     57°19′26″N   39°43′46″E
temp.,
°C
wind,
m/s
gust,
m/s
humid.,
%
clouds,
%
prec.,
mm/h
press.,
hPa
HPBL,
m
17 may, tue
tue1700:00+7wnw61297100 1.2 1001594
03:00+7n499783 2.3 1000355
06:00+8nnw599798 0.2 1000379
09:00+9n5892100 0.4 1001794
12:00+12n6882100 0.8 10011067
15:00+11nne61083100 4.2 1002845
18:00+11nne7118492 1.5 1004949
21:00+7nne61290100 1.6 1006594
18 may, wed
wed1800:00+7n51188100 0.1 1007511
03:00+4n5109160 0.1 1008351
06:00+4n4108893 0.0 1010402
09:00+8n696211 0.0 10111216
12:00+11nnw5755100 0.0 10111881
15:00+11nnw7856100 0.1 10111839
18:00+9nnw7107458 0.3 10131274
21:00+4nw498193 0.4 1014190
19 may, thu
thu1900:00+3w3989100 0.0 1013196
03:00+5w3791100 0.2 1011380
06:00+6nw61089100 0.5 1011864
09:00+4n5892100 0.9 1013579
12:00+7nnw6767100 0.1 10151509
15:00+8nw576389 0.1 10161276
18:00+9nnw68625 0.1 10161638
21:00+4nw49735 0.1 1016184
20 may, fri
fri2000:00+2nw411805 0.0 1017241
03:000nnw39915 0.0 1018198
06:00+2nnw47815 0.0 1019298
09:00+6n45585 0.0 10201034
12:00+9nnw33495 0.0 10191575
15:00+11nnw224510 0.0 10171800
18:00+11wsw014775 0.0 10161332
21:00+5sse1161100 0.0 101610
21 may, sat
sat2100:00+4ene1166100 0.0 101410
03:00+2e227397 0.0 101310
06:00+5ene23725 0.0 1013109
09:00+10ene23554 0.0 1012813
12:00+12ne444797 0.0 10102091
15:00+12ne345182 0.0 10101617
18:00+11ene34591 0.0 10101079
21:00+6ne22661 0.0 101011